�������l�o���
Date,Time,MP-1(��Sv/h),MP-2(��Sv/h),MP-3(��Sv/h),MP-4(��Sv/h),MP-5(��Sv/h),MP-6(��Sv/h),MP-7(��Sv/h),MP-8(��Sv/h),����,����(m/s),���J
2022/01/25,00:00,0.586,0.881,0.556,1.082,0.757,0.351,0.614,0.581,�k�k��,8.2,��
2022/01/25,00:10,0.587,0.880,0.555,1.082,0.758,0.352,0.613,0.579,�k,8.6,��
2022/01/25,00:20,0.587,0.881,0.558,1.082,0.758,0.350,0.613,0.580,�k,8.7,��
2022/01/25,00:30,0.588,0.883,0.557,1.083,0.758,0.351,0.612,0.581,�k,9.0,��
2022/01/25,00:40,0.588,0.881,0.556,1.082,0.758,0.350,0.612,0.582,�k,8.7,��
2022/01/25,00:50,0.587,0.879,0.556,1.083,0.758,0.350,0.612,0.581,�k,8.5,��
2022/01/25,01:00,0.585,0.881,0.556,1.083,0.758,0.351,0.613,0.580,�k�k��,8.4,��
2022/01/25,01:10,0.588,0.879,0.556,1.083,0.757,0.351,0.612,0.581,�k�k��,9.8,��
2022/01/25,01:20,0.587,0.880,0.558,1.084,0.759,0.351,0.612,0.582,�k�k��,9.2,��
2022/01/25,01:30,0.586,0.879,0.556,1.085,0.757,0.351,0.612,0.580,�k,8.7,��
2022/01/25,01:40,0.586,0.881,0.556,1.083,0.757,0.352,0.614,0.582,�k�k��,8.8,��
2022/01/25,01:50,0.586,0.880,0.557,1.083,0.757,0.350,0.612,0.581,�k�k��,8.6,��
2022/01/25,02:00,0.588,0.879,0.555,1.083,0.756,0.350,0.612,0.581,�k�k��,9.2,��
2022/01/25,02:10,0.586,0.880,0.556,1.081,0.755,0.350,0.612,0.582,�k�k��,8.1,��
2022/01/25,02:20,0.585,0.880,0.554,1.085,0.757,0.352,0.613,0.581,�k�k��,8.2,��
2022/01/25,02:30,0.586,0.880,0.556,1.083,0.757,0.350,0.613,0.581,�k�k��,9.3,��
2022/01/25,02:40,0.587,0.878,0.556,1.084,0.759,0.352,0.613,0.580,�k�k��,9.6,��
2022/01/25,02:50,0.586,0.880,0.557,1.083,0.758,0.351,0.614,0.582,�k,10.0,��
2022/01/25,03:00,0.586,0.880,0.555,1.084,0.759,0.351,0.613,0.580,�k,9.6,��
2022/01/25,03:10,0.587,0.879,0.556,1.083,0.756,0.351,0.614,0.580,�k,10.0,��
2022/01/25,03:20,0.586,0.879,0.557,1.085,0.757,0.350,0.613,0.581,�k�k��,11.3,��
2022/01/25,03:30,0.587,0.880,0.557,1.084,0.755,0.350,0.611,0.581,�k,9.3,��
2022/01/25,03:40,0.588,0.878,0.557,1.083,0.756,0.350,0.613,0.580,�k,7.9,��
2022/01/25,03:50,0.585,0.878,0.557,1.084,0.758,0.350,0.613,0.580,�k�k��,7.4,��
2022/01/25,04:00,0.584,0.877,0.556,1.082,0.756,0.352,0.613,0.580,�k�k��,6.3,��
2022/01/25,04:10,0.586,0.878,0.556,1.081,0.757,0.352,0.612,0.580,�k�k��,5.6,��
2022/01/25,04:20,0.585,0.878,0.556,1.083,0.759,0.352,0.612,0.581,�k�k��,6.3,��
2022/01/25,04:30,0.585,0.879,0.557,1.083,0.757,0.351,0.613,0.581,�k�k��,6.1,��
2022/01/25,04:40,0.585,0.878,0.555,1.082,0.758,0.351,0.613,0.582,�k�k��,6.2,��
2022/01/25,04:50,0.585,0.880,0.557,1.083,0.758,0.352,0.612,0.579,�k�k��,7.2,��
2022/01/25,05:00,0.586,0.879,0.556,1.084,0.755,0.350,0.612,0.580,�k�k��,6.1,��
2022/01/25,05:10,0.586,0.877,0.557,1.084,0.756,0.352,0.613,0.580,�k�k��,5.0,��
2022/01/25,05:20,0.585,0.881,0.556,1.084,0.756,0.350,0.609,0.581,�k�k��,4.3,��
2022/01/25,05:30,0.586,0.880,0.556,1.084,0.756,0.351,0.612,0.581,�k��,4.0,��
2022/01/25,05:40,0.584,0.878,0.557,1.082,0.757,0.351,0.611,0.580,�k��,3.2,��
2022/01/25,05:50,0.585,0.880,0.553,1.082,0.755,0.351,0.612,0.581,�k�k��,3.6,��
2022/01/25,06:00,0.585,0.881,0.556,1.082,0.755,0.351,0.611,0.580,�k�k��,5.2,��
2022/01/25,06:10,0.587,0.878,0.557,1.081,0.755,0.350,0.612,0.581,�k�k��,4.6,��
2022/01/25,06:20,0.586,0.880,0.556,1.081,0.756,0.352,0.610,0.581,�k�k��,4.8,��
2022/01/25,06:30,0.586,0.879,0.556,1.082,0.757,0.351,0.611,0.581,�k�k��,4.7,��
2022/01/25,06:40,0.587,0.879,0.557,1.082,0.756,0.350,0.612,0.580,�k,5.1,��
2022/01/25,06:50,0.586,0.877,0.555,1.081,0.756,0.352,0.611,0.581,�k,5.6,��
2022/01/25,07:00,0.586,0.880,0.555,1.084,0.754,0.351,0.613,0.581,�k,5.5,��
2022/01/25,07:10,0.586,0.879,0.555,1.081,0.756,0.350,0.610,0.581,�k�k��,5.9,��
2022/01/25,07:20,0.586,0.880,0.557,1.081,0.757,0.350,0.611,0.578,�k�k��,5.2,��
2022/01/25,07:30,0.584,0.879,0.557,1.084,0.756,0.349,0.611,0.579,�k,6.0,��
2022/01/25,07:40,0.586,0.880,0.557,1.081,0.756,0.351,0.613,0.580,�k�k��,5.9,��
2022/01/25,07:50,0.585,0.880,0.555,1.082,0.754,0.351,0.611,0.580,�k�k��,5.4,��
2022/01/25,08:00,0.585,0.877,0.556,1.083,0.755,0.349,0.612,0.579,�k,5.0,��
2022/01/25,08:10,0.585,0.878,0.555,1.085,0.756,0.350,0.612,0.579,�k�k��,4.7,��
2022/01/25,08:20,0.586,0.880,0.556,1.082,0.755,0.351,0.610,0.581,�k�k��,4.2,��
2022/01/25,08:30,0.587,0.879,0.556,1.080,0.754,0.352,0.614,0.581,�k�k��,3.7,��
2022/01/25,08:40,0.588,0.877,0.557,1.083,0.755,0.352,0.612,0.580,�k�k��,3.4,��
2022/01/25,08:50,0.587,0.873,0.556,1.084,0.754,0.352,0.613,0.580,�k�k��,3.2,��
2022/01/25,09:00,0.586,0.873,0.557,1.084,0.755,0.351,0.613,0.580,�k�k��,2.5,��
2022/01/25,09:10,0.587,0.876,0.557,1.084,0.753,0.351,0.614,0.579,�k�k��,1.7,��
2022/01/25,09:20,0.588,0.873,0.557,1.083,0.755,0.352,0.614,0.582,�k�k��,2.5,��
2022/01/25,09:30,0.587,0.874,0.555,1.080,0.756,0.351,0.615,0.580,�k�k��,2.6,��
2022/01/25,09:40,0.584,0.874,0.557,1.084,0.754,0.350,0.613,0.580,�k�k��,3.3,��
2022/01/25,09:50,0.588,0.872,0.557,1.083,0.754,0.351,0.611,0.580,�k�k��,1.9,��
2022/01/25,10:00,0.589,0.873,0.557,1.083,0.755,0.351,0.612,0.581,�k�k��,2.0,��
2022/01/25,10:10,0.587,0.873,0.557,1.082,0.755,0.351,0.611,0.580,�k�k��,2.5,��
2022/01/25,10:20,0.589,0.871,0.559,1.084,0.755,0.351,0.611,0.582,�k�k��,3.2,��
2022/01/25,10:30,0.585,0.870,0.555,1.084,0.754,0.351,0.612,0.580,�k��,3.4,��
2022/01/25,10:40,0.587,0.873,0.558,1.083,0.756,0.351,0.612,0.580,�k��,3.7,��
2022/01/25,10:50,0.586,0.871,0.556,1.083,0.755,0.351,0.611,0.583,�k��,3.5,��
2022/01/25,11:00,0.586,0.869,0.557,1.083,0.755,0.351,0.610,0.580,�k��,4.2,��
2022/01/25,11:10,0.585,0.871,0.556,1.083,0.757,0.352,0.609,0.581,�k��,3.8,��
2022/01/25,11:20,0.587,0.868,0.557,1.082,0.756,0.350,0.610,0.580,�k��,3.3,��
2022/01/25,11:30,0.588,0.868,0.557,1.084,0.757,0.351,0.610,0.580,���k��,3.7,��
2022/01/25,11:40,0.587,0.870,0.557,1.082,0.757,0.350,0.610,0.579,���k��,3.8,��
2022/01/25,11:50,0.588,0.876,0.557,1.084,0.757,0.350,0.611,0.582,�k��,3.7,��
2022/01/25,12:00,0.587,0.876,0.557,1.083,0.757,0.352,0.611,0.582,���k��,3.9,��
2022/01/25,12:10,0.587,0.874,0.558,1.083,0.758,0.352,0.610,0.581,���k��,3.4,��
2022/01/25,12:20,0.589,0.876,0.556,1.084,0.756,0.351,0.610,0.580,���k��,3.5,��
2022/01/25,12:30,0.590,0.874,0.557,1.081,0.759,0.352,0.611,0.583,��,2.9,��
2022/01/25,12:40,0.588,0.873,0.556,1.084,0.758,0.352,0.613,0.583,���k��,3.0,��
2022/01/25,12:50,0.589,0.872,0.557,1.082,0.759,0.351,0.613,0.583,���k��,2.0,��
2022/01/25,13:00,0.588,0.872,0.558,1.083,0.756,0.350,0.612,0.582,��,2.5,��
2022/01/25,13:10,0.589,0.873,0.558,1.084,0.757,0.351,0.610,0.583,���쓌,3.0,��
2022/01/25,13:20,0.590,0.873,0.559,1.083,0.759,0.353,0.614,0.582,��,1.9,��
2022/01/25,13:30,0.589,0.874,0.557,1.085,0.759,0.351,0.613,0.581,��,1.2,��
2022/01/25,13:40,0.590,0.881,0.558,1.085,0.758,0.351,0.613,0.581,���쓌,2.3,��
2022/01/25,13:50,0.588,0.879,0.560,1.083,0.758,0.354,0.614,0.580,���쓌,1.5,��
2022/01/25,14:00,0.588,0.881,0.557,1.081,0.759,0.351,0.613,0.582,���쓌,1.2,��
2022/01/25,14:10,0.589,0.881,0.558,1.083,0.758,0.352,0.614,0.581,�쓌,1.9,��
2022/01/25,14:20,0.588,0.882,0.558,1.083,0.760,0.352,0.614,0.580,�쓌,2.6,��
2022/01/25,14:30,0.587,0.882,0.558,1.085,0.761,0.352,0.614,0.580,��쓌,2.9,��
2022/01/25,14:40,0.589,0.881,0.557,1.080,0.762,0.353,0.614,0.582,�쓌,2.2,��
2022/01/25,14:50,0.589,0.881,0.559,1.085,0.757,0.353,0.613,0.581,��쓌,2.6,��
2022/01/25,15:00,0.588,0.883,0.558,1.084,0.758,0.352,0.614,0.581,�쓌,2.3,��
2022/01/25,15:10,0.589,0.882,0.558,1.082,0.761,0.350,0.615,0.581,���쓌,3.0,��
2022/01/25,15:20,0.588,0.882,0.558,1.084,0.759,0.351,0.614,0.580,�쓌,2.2,��
2022/01/25,15:30,0.588,0.882,0.558,1.084,0.759,0.353,0.613,0.581,�쓌,2.8,��
2022/01/25,15:40,0.588,0.882,0.559,1.083,0.760,0.353,0.614,0.579,�쓌,2.8,��
2022/01/25,15:50,0.590,0.882,0.558,1.083,0.760,0.352,0.615,0.581,���쓌,2.6,��
2022/01/25,16:00,0.591,0.882,0.558,1.083,0.761,0.352,0.612,0.581,�쓌,2.6,��
2022/01/25,16:10,0.587,0.880,0.558,1.085,0.760,0.352,0.614,0.581,�쓌,2.3,��
2022/01/25,16:20,0.589,0.882,0.559,1.083,0.760,0.353,0.614,0.581,��쓌,2.2,��
2022/01/25,16:30,0.588,0.881,0.558,1.083,0.758,0.352,0.613,0.581,��쓌,2.6,��
2022/01/25,16:40,0.587,0.885,0.560,1.083,0.760,0.351,0.613,0.581,��쓌,2.0,��
2022/01/25,16:50,0.589,0.883,0.559,1.084,0.761,0.353,0.613,0.581,��쓌,2.0,��
2022/01/25,17:00,0.588,0.883,0.559,1.086,0.759,0.352,0.613,0.581,��,1.9,��
2022/01/25,17:10,0.589,0.882,0.558,1.085,0.757,0.352,0.613,0.582,��쓌,2.2,��
2022/01/25,17:20,0.589,0.883,0.558,1.084,0.759,0.352,0.613,0.580,��쓌,2.0,��
2022/01/25,17:30,0.589,0.881,0.559,1.085,0.759,0.351,0.613,0.581,��쓌,1.4,��
2022/01/25,17:40,0.587,0.882,0.559,1.082,0.759,0.352,0.613,0.581,�쓌,1.7,��
2022/01/25,17:50,0.587,0.883,0.559,1.084,0.758,0.352,0.613,0.579,��쓌,2.2,��
2022/01/25,18:00,0.587,0.881,0.558,1.083,0.758,0.351,0.611,0.580,��쓌,2.0,��
2022/01/25,18:10,0.586,0.881,0.558,1.084,0.759,0.351,0.612,0.580,��,2.0,��
2022/01/25,18:20,0.587,0.881,0.558,1.083,0.759,0.351,0.613,0.580,��쓌,2.0,��
2022/01/25,18:30,0.586,0.882,0.558,1.084,0.759,0.351,0.612,0.580,��,2.0,��
2022/01/25,18:40,0.589,0.882,0.558,1.083,0.758,0.352,0.612,0.581,��,1.7,��
2022/01/25,18:50,0.586,0.881,0.557,1.084,0.760,0.352,0.612,0.581,��쐼,1.9,��
2022/01/25,19:00,0.588,0.881,0.558,1.084,0.759,0.351,0.612,0.579,��쐼,2.2,��
2022/01/25,19:10,0.587,0.879,0.559,1.085,0.759,0.351,0.613,0.581,��쐼,1.9,��
2022/01/25,19:20,0.587,0.882,0.557,1.085,0.758,0.351,0.612,0.581,��쐼,2.2,��
2022/01/25,19:30,0.586,0.883,0.558,1.083,0.759,0.351,0.612,0.582,��쐼,3.4,��
2022/01/25,19:40,0.588,0.881,0.557,1.083,0.759,0.352,0.611,0.581,��,3.3,��
2022/01/25,19:50,0.588,0.882,0.559,1.084,0.760,0.353,0.613,0.581,��,2.6,��
2022/01/25,20:00,0.586,0.881,0.558,1.080,0.759,0.353,0.611,0.580,��쐼,3.7,��
2022/01/25,20:10,0.586,0.881,0.556,1.085,0.759,0.351,0.611,0.579,��,4.0,��
2022/01/25,20:20,0.586,0.880,0.558,1.083,0.759,0.351,0.614,0.581,��,3.8,��
2022/01/25,20:30,0.588,0.880,0.558,1.084,0.759,0.351,0.612,0.580,��,3.9,��
2022/01/25,20:40,0.587,0.883,0.558,1.082,0.760,0.352,0.612,0.581,��,3.2,��
2022/01/25,20:50,0.587,0.882,0.558,1.082,0.759,0.351,0.611,0.581,��,3.3,��
2022/01/25,21:00,0.588,0.880,0.558,1.083,0.759,0.352,0.611,0.580,��,3.5,��
2022/01/25,21:10,0.587,0.881,0.556,1.084,0.759,0.351,0.614,0.581,��,3.5,��
2022/01/25,21:20,0.587,0.881,0.556,1.083,0.759,0.351,0.613,0.581,��,2.6,��
2022/01/25,21:30,0.590,0.882,0.559,1.084,0.760,0.352,0.612,0.579,��쐼,3.0,��
2022/01/25,21:40,0.587,0.879,0.558,1.082,0.758,0.352,0.613,0.579,��쐼,2.8,��
2022/01/25,21:50,0.588,0.880,0.558,1.082,0.759,0.352,0.613,0.579,��쐼,2.9,��
2022/01/25,22:00,0.587,0.878,0.557,1.082,0.758,0.353,0.612,0.583,��쐼,2.8,��
2022/01/25,22:10,0.588,0.881,0.558,1.084,0.758,0.351,0.612,0.581,��쐼,2.8,��
2022/01/25,22:20,0.588,0.881,0.558,1.083,0.759,0.351,0.613,0.580,��,2.3,��
2022/01/25,22:30,0.587,0.883,0.558,1.086,0.760,0.352,0.613,0.580,��,2.0,��
2022/01/25,22:40,0.587,0.881,0.557,1.083,0.759,0.351,0.612,0.581,��,2.9,��
2022/01/25,22:50,0.587,0.881,0.558,1.085,0.759,0.351,0.612,0.582,��,2.6,��
2022/01/25,23:00,0.588,0.881,0.557,1.084,0.759,0.352,0.613,0.580,��,3.2,��
2022/01/25,23:10,0.587,0.881,0.559,1.085,0.762,0.351,0.612,0.581,��쐼,3.3,��
2022/01/25,23:20,0.587,0.879,0.558,1.083,0.760,0.350,0.612,0.581,��,3.8,��
2022/01/25,23:30,0.585,0.883,0.558,1.085,0.761,0.353,0.613,0.579,��,3.8,��
2022/01/25,23:40,0.588,0.881,0.557,1.086,0.758,0.351,0.612,0.580,��,3.5,��
2022/01/25,23:50,0.587,0.881,0.557,1.084,0.759,0.353,0.614,0.581,��,3.1,��
